Voltar ao catálogo

FENGYUN 1C DEB

AtivoSSO
NORAD 30245·DEBRIS·🇨🇳 China

Lançado May 10, 1999 de Taiyuan Satellite Launch Center

Loading…

Próximas Passagens (próximas 24 horas)

TLE

AtualizadoSource: Space-Track

Época: Sep 14, 2026, 09:03 UTC

1 30245U 99025XE  26257.37734417  .00000698  00000-0  62542-3 0  9992
2 30245  98.9106 233.6329 0190353 232.4852 125.8868 13.79697206984946

Acompanhe FENGYUN 1C DEB em tempo real com AllMySat

Download on the App Store